パンスターズ彗星

C/2013 W2 ( PanSTARRS )

English version
Home page
Updated on May 22, 2016

---------------------------------------------------------------------

・ プロフィール

発見日 2013年11月27日
発見光度 20.9等
発見者 Pan-STARRS 1 telescope (Haleakala)

・ 写真集

・ 軌道要素

Epoch 2015 Jan. 18.0 TT = JDT 2457040.5
T 2015 Jan. 5.29067 TT                                  MPCW
q   4.4444414            (2000.0)            P               Q
n   0.02918356     Peri.  307.19496     -0.60245271     -0.79815455
a  10.4482568      Node   179.85032     +0.75520473     -0.57011817
e   0.5746236      Incl.    4.56656     +0.25829548     -0.19471668
P  33.77
From 156 observations 2013 Nov. 27-2016 May 5, mean residual 0".5.

・ 光度変化

        m1 = 7.5 + 5 logΔ + 12.0 log r

---------------------------------------------------------------------

軌道要素はM.P.E.C. 2016-K18に掲載されたものです。
光度グラフはComet for Windowsで作成したものです。

---------------------------------------------------------------------

Copyright(C) Seiichi Yoshida (comet@aerith.net). All rights reserved.